EW4699 Weather Reports


time (UTC)temp
C
wind
direction
speed
KPH
gust
KPH
rain 1hr
cm
rain 24hr
cm
rain mn
cm
humidity
%
barometer
mb
20260506024655 -1 233 0.0 0.0 0.00 0.00 0.00 80 1012.9
20260506023109 -2 233 0.0 0.0 0.00 0.00 0.00 84 1012.9
20260506021659 -2 227 0.0 0.0 0.00 0.00 0.00 81 1012.9
20260506020058 -2 227 0.0 0.0 0.00 0.00 0.00 84 1012.9
20260506014655 -2 227 0.0 0.0 0.00 0.00 0.00 84 1012.7
20260506013103 -2 227 0.0 0.0 0.00 0.00 0.00 83 1012.6
20260506011657 -2 226 0.0 0.0 0.00 0.00 0.00 82 1012.6
20260506010056 -2 225 0.0 0.0 0.00 0.00 0.00 81 1012.5
20260506004655 -2 225 0.0 0.0 0.00 0.00 0.00 80 1012.4
20260506003057 -2 229 0.0 0.0 0.00 0.00 0.00 81 1012.4
20260506001656 -2 229 0.0 4.8 0.00 0.00 0.00 81 1012.3
20260505234659 -2 119 0.0 0.0 0.00 0.00 0.00 78 1012.3
20260505233058 -1 119 0.0 0.0 0.00 0.00 0.00 77 1012.2
20260505231656 -1 119 0.0 0.0 0.00 0.00 0.00 76 1012.2
20260505230120 -1 119 1.6 4.8 0.00 0.00 0.00 75 1012.1
20260505224657 -1 64 0.0 4.8 0.00 0.00 0.00 72 1012.1
20260505223058 0 132 0.0 0.0 0.00 0.00 0.00 70 1012.1
20260505221656 0 132 0.0 0.0 0.00 0.00 0.00 70 1012.2
20260505214657 0 131 0.0 0.0 0.00 0.00 0.00 68 1011.8
20260505213056 0 90 1.6 4.8 0.00 0.00 0.00 68 1011.8
20260505211657 0 309 0.0 0.0 0.00 0.00 0.00 71 1011.6
20260505210105 0 308 0.0 1.6 0.00 0.00 0.00 71 1011.5
20260505204659 1 308 0.0 0.0 0.00 0.00 0.00 65 1011.4
20260505203107 1 308 0.0 0.0 0.00 0.00 0.00 60 1011.2
20260505201657 2 308 0.0 0.0 0.00 0.00 0.00 56 1011.1
20260505200109 3 308 0.0 1.6 0.00 0.00 0.00 52 1011.1
20260505194657 4 308 0.0 1.6 0.00 0.00 0.00 48 1010.9
20260505193104 4 309 0.0 1.6 0.00 0.00 0.00 45 1010.8
20260505191700 5 309 0.0 1.6 0.00 0.00 0.00 43 1010.7
20260505190057 6 310 0.0 1.6 0.00 0.00 0.00 38 1010.6
20260505184657 6 310 0.0 3.2 0.00 0.03 0.00 35 1010.5
20260505183057 7 311 1.6 9.7 0.00 0.03 0.00 33 1010.4
20260505181700 7 326 4.8 14.5 0.00 0.03 0.00 32 1010.2
20260505180057 7 310 9.7 20.9 0.00 0.03 0.00 30 1010.3
20260505174657 7 304 8.0 17.7 0.00 0.03 0.00 29 1010.1
20260505173057 8 288 6.4 12.9 0.00 0.03 0.00 30 1010.0
20260505171700 8 278 6.4 16.1 0.00 0.03 0.00 31 1010.0
20260505170057 8 304 8.0 17.7 0.00 0.03 0.00 30 1009.8
20260505164657 8 301 9.7 24.1 0.00 0.03 0.00 29 1009.8
20260505163103 9 288 4.8 12.9 0.00 0.03 0.00 27 1009.7
20260505161657 8 282 9.7 17.7 0.00 0.03 0.00 27 1009.8
20260505153057 9 284 8.0 19.3 0.00 0.03 0.00 23 1009.6
20260505151658 9 286 8.0 20.9 0.00 0.03 0.00 23 1009.5
20260505150107 9 254 8.0 25.7 0.00 0.03 0.00 22 1009.3
20260505140105 7 309 8.0 22.5 0.00 0.03 0.00 25 1009.3
20260505130112 9 292 11.3 30.6 0.00 0.03 0.00 25 1009.3
20260505124658 8 309 8.0 16.1 0.00 0.03 0.00 31 1009.3
20260505123102 7 327 8.0 14.5 0.00 0.03 0.00 31 1009.4
20260505121658 8 329 1.6 16.1 0.00 0.03 0.00 30 1009.2
20260505120113 8 316 12.9 24.1 0.00 0.03 0.00 30 1009.2
20260505114659 8 277 3.2 14.5 0.00 0.03 0.00 30 1009.1
20260505113116 8 311 4.8 14.5 0.00 0.03 0.00 30 1009.1
20260505111657 8 228 4.8 16.1 0.00 0.03 0.00 29 1009.2
20260505110125 8 278 4.8 11.3 0.00 0.03 0.00 34 1009.2
20260505101658 7 223 1.6 9.7 0.00 0.03 0.00 35 1009.4
20260505094701 6 324 3.2 8.0 0.00 0.03 0.00 41 1009.6
20260505093100 6 328 1.6 8.0 0.00 0.03 0.00 41 1009.6
20260505091658 6 303 1.6 8.0 0.00 0.03 0.00 40 1009.6
20260505090106 6 293 1.6 8.0 0.00 0.03 0.00 40 1009.6
20260505084658 5 304 1.6 8.0 0.00 0.03 0.00 43 1009.6
20260505083105 6 293 4.8 8.0 0.00 0.03 0.00 44 1009.5
20260505081658 6 300 3.2 11.3 0.00 0.03 0.00 42 1009.4
20260505080058 6 331 4.8 14.5 0.00 0.03 0.00 44 1009.3
20260505074658 4 264 4.8 11.3 0.00 0.03 0.00 47 1009.3
20260505073104 3 288 3.2 12.9 0.00 0.03 0.00 48 1009.2
20260505071658 3 325 6.4 12.9 0.00 0.03 0.00 49 1009.2
20260505070059 4 325 3.2 14.5 0.00 0.03 0.00 48 1009.2
20260505064658 4 316 1.6 11.3 0.00 0.03 0.00 49 1009.1
20260505063059 4 350 1.6 9.7 0.00 0.03 0.00 50 1009.1
20260505061657 4 320 4.8 12.9 0.00 0.03 0.00 50 1009.0
20260505060059 3 5 4.8 11.3 0.00 0.03 0.00 52 1009.0
20260505054658 3 308 3.2 14.5 0.00 0.03 0.00 53 1008.9
20260505053058 3 330 0.0 9.7 0.00 0.03 0.00 56 1008.9
20260505051659 3 267 0.0 6.4 0.00 0.03 0.00 58 1008.8
20260505041700 1 310 0.0 0.0 0.00 0.03 0.00 69 1008.3
20260505040104 0 311 0.0 0.0 0.00 0.03 0.00 73 1008.1
20260505034659 0 310 0.0 1.6 0.00 0.03 0.00 72 1008.1
20260505033059 0 306 3.2 6.4 0.00 0.03 0.00 76 1007.9
20260505031659 0 331 0.0 3.2 0.00 0.03 0.00 74 1008.0